Weather History for Imperial, CA

Change the Weather History Date:

Friday, March 28, 2014

  Actual Average Record
Temperature  
Mean Temperature 65 °F -  
Max Temperature 80 °F 80 °F 93 °F (1969)
Min Temperature 51 °F 52 °F 44 °F (1991)
Growing Degree Days 15 (Base 50)    
Moisture  
Dew Point 40 °F    
Average Humidity 41    
Maximum Humidity 66    
Minimum Humidity 23    
Precipitation  
Precipitation 0.00 in - - ()
Sea Level Pressure  
Sea Level Pressure 30.05 in    
Wind  
Wind Speed 6 mph (West)    
Max Wind Speed 12 mph    
Max Gust Speed -    
Visibility 10 miles    
Events      
Averages and records for this station are not official NWS values.
T = Trace of Precipitation, MM = Missing Value Source: NWS Daily Summary

Daily Weather History Graph

Daily Weather History Graph

Search for Another Location

Airport:

Trip Planner

Search our weather history database for the weather conditions in past years. The results will help you decide how hot, cold, wet, or windy it might be!

Date:

Astronomy

Mar. 28, 2014 Rise Set
Actual Time 6:35 AM PDT 6:59 PM PDT
Civil Twilight 6:10 AM PDT 7:24 PM PDT
Nautical Twilight 5:41 AM PDT 7:53 PM PDT
Astronomical Twilight 5:12 AM PDT 8:22 PM PDT
Moon 5:02 AM PDT (3/28) 5:06 PM PDT (3/28)
Length of Visible Light 13h 13m
Length of Day
12h 24m
Waning Crescent, 5% of the Moon is Illuminated
Mar 28
Waning Crescent
Mar 30
New
Apr 7
First Quarter
Apr 15
Full
Apr 22
Last Quarter

Hourly Weather History & Observations

Time (PDT) Temp. Dew Point Humidity Pressure Visibility Wind Dir Wind Speed Gust Speed Precip Events Conditions
12:53 AM 57.9 °F 41.0 °F 53% 29.99 in 10.0 mi West 11.5 mph - N/A   Clear
1:53 AM 55.0 °F 39.9 °F 57% 30.00 in 10.0 mi West 4.6 mph - N/A   Clear
2:53 AM 52.0 °F 41.0 °F 66% 30.00 in 10.0 mi West 5.8 mph - N/A   Clear
3:53 AM 55.0 °F 39.0 °F 55% 29.99 in 10.0 mi WNW 6.9 mph - N/A   Clear
4:53 AM 57.0 °F 37.9 °F 49% 30.00 in 10.0 mi WNW 6.9 mph - N/A   Clear
5:53 AM 54.0 °F 39.0 °F 57% 30.02 in 10.0 mi West 9.2 mph - N/A   Clear
6:53 AM 51.1 °F 39.9 °F 66% 30.05 in 10.0 mi West 5.8 mph - N/A   Clear
7:53 AM 55.9 °F 41.0 °F 57% 30.07 in 10.0 mi West 3.5 mph - N/A   Clear
8:53 AM 63.0 °F 43.0 °F 48% 30.09 in 10.0 mi WNW 5.8 mph - N/A   Clear
9:53 AM 66.9 °F 41.0 °F 39% 30.12 in 10.0 mi WNW 5.8 mph - N/A   Clear
10:53 AM 71.1 °F 43.0 °F 36% 30.12 in 10.0 mi WNW 9.2 mph - N/A   Clear
11:53 AM 73.0 °F 42.1 °F 33% 30.12 in 10.0 mi NW 3.5 mph - N/A   Clear
12:53 PM 73.9 °F 39.9 °F 29% 30.10 in 10.0 mi West 5.8 mph - N/A   Clear
1:53 PM 75.9 °F 39.0 °F 26% 30.08 in 10.0 mi WSW 8.1 mph - N/A   Clear
2:53 PM 77.0 °F 39.0 °F 25% 30.04 in 10.0 mi WNW 6.9 mph - N/A   Clear
3:53 PM 79.0 °F 37.9 °F 23% 30.03 in 10.0 mi Calm Calm - N/A   Clear
4:53 PM 77.0 °F 39.9 °F 26% 30.01 in 10.0 mi West 4.6 mph - N/A   Clear
5:53 PM 77.0 °F 39.0 °F 25% 30.01 in 10.0 mi SSW 6.9 mph - N/A   Clear
6:53 PM 75.9 °F 37.9 °F 25% 30.01 in 10.0 mi SW 5.8 mph - N/A   Clear
7:53 PM 69.1 °F 42.1 °F 38% 30.03 in 10.0 mi WSW 4.6 mph - N/A   Clear
8:53 PM 66.9 °F 39.9 °F 37% 30.04 in 10.0 mi Calm Calm - N/A   Clear
9:53 PM 66.9 °F 37.9 °F 34% 30.06 in 10.0 mi Calm Calm - N/A   Clear
10:53 PM 63.0 °F 39.9 °F 43% 30.06 in 10.0 mi East 3.5 mph - N/A   Clear
11:53 PM 61.0 °F 39.0 °F 44% 30.06 in 10.0 mi Calm Calm - N/A   Clear